Prox-1
1 44339U 19036A   25034.43684544  .00018846  00000-0  26583-2 0  9997
2 44339  23.9965 167.8948 0008695  75.5944 284.5517 14.75649534299330
SONATE
1 44400U 19038Q   25034.02891487  .00073915  00000-0  10116-2 0  9992
2 44400  97.7107  47.9268 0009873  12.3649 347.7845 15.57113924309696
Taurus 1
1 44530U 19059C   25034.80341702  .00012715  00000-0  25052-2 0  9991
2 44530  98.5903 168.6322 0009465  63.7467 296.4705 14.62633599285531
Duchifat 3
1 44854U 19089C   25034.45592423  .00043516  00000-0  13235-2 0  9995
2 44854  36.9491  69.1632 0010463 224.3628 135.6286 15.33032697283561
TO-108
1 44881U 19093C   25034.79121938  .00002078  00000-0  24910-3 0  9997
2 44881  97.8052 113.0465 0012646 286.1104  73.8719 14.85087169277403
FloripaSat 1
1 44885U 19093G   25034.78288498  .00011069  00000-0  99202-3 0  9991
2 44885  97.8225 122.3253 0009974 265.5324  94.4758 14.95925996277921
RS-44
1 44909U 19096E   25034.21408481  .00000035  00000-0  99683-4 0  9990
2 44909  82.5242 311.2578 0216495 230.9106 127.2566 12.79738115238529
UPMSat 2
1 46276U 20061E   25034.57122011  .00044752  00000-0  74993-3 0  9994
2 46276  97.2642 106.2680 0000892  51.8858 308.2475 15.51717596245821
AmicalSat
1 46287U 20061R   25010.85863821  .11283921  24654-5  56408-3 0  9994
2 46287  97.2840  89.8720 0009935 281.1985  78.8199 16.41970930241877
SALSAT
1 46495U 20068K   25034.85868768  .00012707  00000-0  59893-3 0  9998
2 46495  97.8477   7.4664 0010563 231.1293 128.8999 15.19598576239416
CubeSX-Sirius-HSE
1 47951U 21022V   25034.80387035  .00071710  00000-0  12417-2 0  9994
2 47951  97.4350 301.7228 0010843  45.7685 314.4455 15.50612299214126
CubeSX-HSE
1 47952U 21022W   25034.78739336  .00078202  00000-0  13325-2 0  9999
2 47952  97.4347 301.8764 0010540  43.6569 316.5515 15.51044870214137
KSU-Cubesat
1 47954U 21022Y   25034.73310699  .00191153  00000-0  17064-2 0  9998
2 47954  97.4332 305.5717 0008498  53.2924 306.9116 15.67776655214087
GRBAlpha
1 47959U 21022AD  25034.81267014  .00078332  00000-0  13400-2 0  9997
2 47959  97.4340 302.0661 0010785  45.1703 315.0423 15.50929777212962
Orbicraft-Zorkiy
1 47960U 21022AE  25034.75393821  .00125636  00000-0  15118-2 0  9996
2 47960  97.4336 304.9053 0009208  46.4001 313.8018 15.60363908213807
TUBIN
1 48900U 21059X   25034.75872317  .00040165  00000-0  79767-3 0  9997
2 48900  97.6653 195.1645 0005236 342.3040  17.8026 15.46871492200500
LEDSAT
1 49069U 21073D   25034.75506115  .00047151  00000-0  10530-2 0  9994
2 49069  97.4058 112.6696 0013070 176.0150 184.1204 15.43299878191923
CUTE
1 49263U 21088D   25034.17460309  .00062164  00000-0  15354-2 0  9996
2 49263  97.4660 107.2481 0008960 347.3585  12.7434 15.40241879184925
TeikyoSat 4
1 49396U 21102B   25034.61099349  .00004048  00000-0  27631-3 0  9990
2 49396  97.4286  77.5302 0012208 199.4367 160.6397 15.06679765177576
Z-Sat
1 49399U 21102E   25034.81210934  .00008087  00000-0  46506-3 0  9999
2 49399  97.4000  80.1125 0018828 175.4398 184.7008 15.12575877177952
KOSEN 1
1 49402U 21102H   25034.65437361  .00010839  00000-0  54218-3 0  9998
2 49402  97.3917  82.5058 0017390 154.2797 205.9305 15.17464009178175
HO-113
1 50466U 21131B   25034.84512922  .00001325  00000-0  43031-3 0  9991
2 50466  98.5149 124.8405 0004848 143.8544 216.2973 14.40508126163344
IRIS-A
1 51044U 22002BN  25034.09475350  .00086996  00000-0  12454-2 0  9993
2 51044  97.3468 108.7351 0003664 282.2894  77.7950 15.55894102169991
Foresail-1
1 52766U 22057AL  25034.44413084  .00069826  00000-0  10104-2 0  9993
2 52766  97.5976 175.2244 0005942  11.4101 348.7287 15.55654894150089
SNUGLITE 2
1 52899U 22065F   25034.36715997  .00003181  00000-0  63552-3 0  9996
2 52899  98.1463 177.7740 0008176 143.4706 216.7054 14.62557154138036
IO-117
1 53106U 22080B   25034.56446200 -.00000003  00000-0  00000+0 0  9991
2 53106  70.1417 112.1355 0008120  52.7419 307.3980  6.42557586 60132
FO-118
1 54684U 22167C   25034.83088643  .00278523  00000-0  16687-2 0  9996
2 54684  97.6104 197.2131 0006254 336.3178  23.7799 15.77011576120097
SO-120
1 56992U 23084BU  25034.80593118  .00983031  44348-3  24727-2 0  9991
2 56992  97.5240 169.6163 0011382 294.2881  65.7205 15.95597293 91999
UmKA 1 (RS40S)
1 57172U 23091G   25034.78930820  .00008945  00000-0  51005-3 0  9998
2 57172  97.5785  90.9023 0016262  51.9904 308.2792 15.12897314 88449
CubeBel-2 (EU11S)
1 57175U 23091K   25034.83080184  .00014867  00000-0  78432-3 0  9999
2 57175  97.5787  91.4498 0014302  61.2420 299.0247 15.15562158 88480
VERONIKA
1 58261U 23174F   25034.80497420  .00060498  00000-0  13604-2 0  9990
2 58261  97.4302 116.2529 0007641 140.0458 220.1353 15.43091566 69130
KAFASAT
1 58317U 23174BP  25034.56182754  .00156396  00000-0  19009-2 0  9994
2 58317  97.4195 118.9737 0003228 107.5059 252.6551 15.60037479 69316
ENSO
1 58470U 23185J   25034.79994840  .00046338  00000-0  11294-2 0  9990
2 58470  97.3925 107.2390 0008948 171.2118 188.9287 15.40721956 65579
EIRSAT-1
1 58472U 23185L   25034.84638719  .00054650  00000-0  11769-2 0  9991
2 58472  97.3916 107.8991 0008049 171.8529 188.2852 15.44400878 65626
SONATE-2
1 59112U 24043Q   25034.30490617  .00026092  00000-0  91665-3 0  9994
2 59112  97.4963 163.6729 0011758 200.8182 159.2581 15.29302622 50991
MO-122
1 60209U 24125G   25034.53937745  .00026750  00000-0  92800-3 0  9990
2 60209  97.2948 247.9827 0020317 227.3037 132.6493 15.29572144 32647
GRBBeta
1 60237U 24128C   25034.62748865  .00007458  00000-0  59211-3 0  9990
2 60237  61.9927 158.1198 0038794  27.9131 332.4029 15.00700325 31281
Curium One
1 60242U 24128H   25034.62313781  .00012140  00000-0  92358-3 0  9994
2 60242  61.9832 157.8650 0038956  22.0758 338.1999 15.01883588 31296
ROBUSTA-3A
1 60243U 24128J   25034.59185021  .00011787  00000-0  90726-3 0  9998
2 60243  61.9897 158.4242 0037033  20.0999 340.1539 15.01517356 31281
CatSat
1 60246U 24125J   25034.55329332  .00016665  00000-0  61850-3 0  9995
2 60246  97.2736 248.4052 0045720 180.4106 179.7103 15.26648984 30731
AO-123
1 61781U 24199AY  25034.77007163  .00013614  00000-0  53899-3 0  9995
2 61781  97.3746 264.1759 0015332 285.8766  74.0781 15.25444815 57683
POEM 4 (BGS ARPIT)
1 62461U 24253C   25034.63097932  .00123833  00000-0  67031-3 0  9998
2 62461  55.2203  89.1224 0011261  21.3809 338.7708 15.79197486  5499
